{"data":{"norad_id":67679,"epoch":"2026-05-25T03:15:08.095104Z","epoch_age_seconds":63019,"freshness":"FRESH","line1":"1 67679U 26023F   26145.13551036  .00010112  00000+0  40682-3 0  9997","line2":"2 67679  96.6237 211.7582 0019484 204.2568 155.7757 15.24877118 16489","mean_motion":15.24877118,"eccentricity":0.0019484,"inclination_deg":96.6237,"raan_deg":211.7582,"arg_perigee_deg":204.2568,"mean_anomaly_deg":155.7757,"bstar":0.00040682,"rev_number":1648,"period_min":94.43383883212,"perigee_km":477.77032208383,"apogee_km":504.53857700441,"semimajor_km":6869.2914495441,"source":"CELESTRAK","updated_at":"2026-05-25T13:38:07.184376Z"}}